EW6030 Weather Reports


Display with metric or nautical units.
time (UTC)temp
F
wind
direction
speed
MPH
gust
MPH
rain 1hr
in
rain 24hr
in
rain mn
in
humidity
%
barometer
mb
20260506084518 36 196 0.0 0.0 0.00 0.00 0.00 74 1009.2
20260506083017 37 196 0.0 0.0 0.00 0.00 0.00 73 1009.0
20260506081516 37 196 0.0 0.0 0.00 0.00 0.00 72 1008.8
20260506073010 38 196 0.0 0.0 0.00 0.00 0.00 69 1008.6
20260506071508 38 196 0.0 0.0 0.00 0.00 0.00 69 1008.5
20260506061502 40 196 0.0 0.0 0.00 0.00 0.00 63 1008.8
20260506050106 42 196 0.0 0.0 0.00 0.00 0.00 58 1008.6
20260506044553 42 196 0.0 0.0 0.00 0.00 0.00 56 1008.6
20260506043047 43 196 0.0 0.0 0.00 0.00 0.00 54 1008.6
20260506041545 44 196 0.0 0.0 0.00 0.00 0.00 53 1008.6
20260506040041 45 196 0.0 0.0 0.00 0.00 0.00 52 1008.4
20260506034557 46 196 0.0 0.0 0.00 0.00 0.00 49 1008.1
20260506033038 47 196 0.0 0.0 0.00 0.00 0.00 48 1008.1
20260506031539 47 196 0.0 0.0 0.00 0.00 0.00 45 1008.1
20260506030041 48 196 0.0 0.0 0.00 0.00 0.00 44 1008.1
20260506024555 48 197 0.0 0.0 0.00 0.00 0.00 43 1008.0
20260506023033 48 201 0.0 0.0 0.00 0.00 0.00 43 1007.7
20260506021532 49 122 0.0 0.0 0.00 0.00 0.00 43 1007.5
20260506020030 49 122 0.0 0.0 0.00 0.00 0.00 43 1007.2
20260506014531 49 122 0.0 0.0 0.00 0.00 0.00 42 1007.1
20260506013039 50 174 0.0 0.0 0.00 0.00 0.00 42 1006.8
20260506011526 51 186 0.0 0.0 0.00 0.00 0.00 41 1006.5
20260506010029 51 176 0.0 0.0 0.00 0.00 0.00 41 1006.3
20260506004522 52 127 0.0 0.0 0.00 0.00 0.00 39 1006.1
20260506003023 53 113 0.0 0.0 0.00 0.00 0.00 38 1006.1
20260506001522 53 156 1.0 0.0 0.00 0.00 0.00 37 1006.1
20260506000022 54 110 1.0 0.0 0.00 0.00 0.00 37 1005.8
20260505234525 54 120 1.0 0.0 0.00 0.00 0.00 36 1005.8
20260505233021 55 93 1.0 0.0 0.00 0.00 0.00 35 1005.8
20260505231520 56 124 1.0 0.0 0.00 0.00 0.00 34 1005.9
20260505230035 56 78 1.0 0.0 0.00 0.00 0.00 34 1005.8
20260505224518 57 85 1.0 0.0 0.00 0.00 0.00 34 1005.7
20260505223017 57 123 2.0 0.0 0.00 0.00 0.00 33 1005.4
20260505221519 58 109 2.0 0.0 0.00 0.00 0.00 33 1005.4
20260505220018 59 23 2.0 0.0 0.00 0.00 0.00 30 1005.2
20260505214519 61 93 2.0 0.0 0.00 0.00 0.00 30 1005.1
20260505213016 62 98 2.0 0.0 0.00 0.00 0.00 30 1005.2
20260505211516 62 45 2.0 0.0 0.00 0.00 0.00 29 1005.2
20260505210013 61 151 3.0 0.0 0.00 0.00 0.00 28 1005.1
20260505204510 60 120 1.0 0.0 0.00 0.00 0.00 32 1005.1
20260505203011 61 128 2.0 0.0 0.00 0.00 0.00 30 1005.2
20260505201510 59 161 3.0 0.0 0.00 0.00 0.00 32 1005.4
20260505200025 59 85 2.0 0.0 0.00 0.00 0.00 29 1005.7
20260505194508 59 93 3.0 0.0 0.00 0.00 0.00 31 1005.7
20260505193009 59 64 3.0 0.0 0.00 0.00 0.00 30 1005.6
20260505191505 56 156 3.0 0.0 0.00 0.00 0.00 34 1005.7
20260505190006 57 79 2.0 0.0 0.00 0.00 0.00 33 1005.8
20260505184503 58 58 2.0 0.0 0.00 0.00 0.00 32 1005.7
20260505183002 58 161 2.0 0.0 0.00 0.00 0.00 33 1005.4
20260505181600 56 149 3.0 0.0 0.00 0.00 0.00 34 1005.3
20260505180104 57 77 2.0 0.0 0.00 0.00 0.00 34 1005.2
20260505174559 56 111 2.0 0.0 0.00 0.00 0.00 34 1005.3
20260505173056 56 77 2.0 0.0 0.00 0.00 0.00 36 1005.1
20260505171556 56 65 2.0 0.0 0.00 0.00 0.00 34 1005.5
20260505170056 55 156 1.0 0.0 0.00 0.00 0.00 37 1005.4
20260505164601 54 67 2.0 0.0 0.00 0.00 0.00 36 1005.5
20260505163059 54 70 2.0 0.0 0.00 0.00 0.00 36 1005.4
20260505161554 54 62 2.0 0.0 0.00 0.00 0.00 35 1005.6
20260505153108 55 73 1.0 0.0 0.00 0.00 0.00 37 1005.3
20260505151556 52 110 1.0 0.0 0.00 0.00 0.00 37 1005.0
20260505124546 46 101 1.0 0.0 0.00 0.00 0.00 53 1005.5
20260505123043 46 38 0.0 0.0 0.00 0.00 0.00 53 1005.5
20260505121543 45 93 1.0 0.0 0.00 0.00 0.00 54 1005.3
20260505120041 45 58 0.0 0.0 0.00 0.00 0.00 54 1005.1
20260505114541 44 82 0.0 0.0 0.00 0.00 0.00 58 1004.2
20260505113036 42 110 0.0 0.0 0.00 0.00 0.00 65 1003.9
20260505111542 42 178 0.0 0.0 0.00 0.00 0.00 63 1003.3
20260505101529 43 178 0.0 0.0 0.00 0.00 0.00 61 1003.5
20260505100034 43 180 0.0 0.0 0.00 0.00 0.00 60 1003.2
20260505094522 44 180 0.0 0.0 0.00 0.00 0.00 61 1003.1
20260505093021 44 180 0.0 0.0 0.00 0.00 0.00 60 1002.9
20260505091519 45 180 0.0 0.0 0.00 0.00 0.00 59 1003.2
20260505090024 45 180 0.0 0.0 0.00 0.00 0.00 57 1003.2